Regional Weather Roundup
Issued by NWS

Home | Current Version | Previous Version | Graphics & Text | Print | Product List | Glossary On
Versions: 1 2 3 4 5 6 7 8 9 10 11 12 13 14 15 16 17 18 19 20 21 22 23 24 25 26 27 28 29 30 31 32 33 34 35 36 37 38 39 40 41 42 43 44 45 46 47 48 49 50
000
ASUS45 KBOU 091907
RWRCO

WEATHER ROUNDUP FOR COLORADO
NATIONAL WEATHER SERVICE DENVER/BOULDER CO
1200 PM MST TUE FEB 09 2016

NOTE: "FAIR" INDICATES FEW OR NO CLOUDS BELOW 12000 FEET WITH NO
SIGNIFICANT WEATHER AND/OR OBSTRUCTIONS TO VISIBILITY.

COZ001>005-013-030-031-092000-
...NORTHWEST COLORADO...

CITY           SKY/WX    TMP DP  RH WIND       PRES   REMARKS
CRAIG          CLOUDY    17  13  84 CALM      30.54F
HAYDEN         CLOUDY    25  16  68 SE7       30.51F WCI  17
MEEKER         SUNNY     29  17  61 CALM      30.51F
MOUNT WERNER   NOT AVBL
STEAMBOAT SPGS CLOUDY    20  17  86 CALM      30.52F
WALDEN         SUNNY     18  10  73 CALM      30.48F
$$

COZ006>008-011-092000-
...WEST CENTRAL VALLEYS...

CITY           SKY/WX    TMP DP  RH WIND       PRES   REMARKS
GRAND JUNCTION SUNNY     35  26  69 SE7       30.52F WCI  29
MONTROSE       SUNNY     39  19  44 CALM      30.54F
EAGLE          SUNNY     27  16  63 CALM      30.57F
RIFLE          SUNNY     32  19  58 E3        30.53F
DELTA          SUNNY     39  22  50 E3        30.54F
NUCLA          SUNNY     37  23  56 CALM      30.53F
$$

COZ017>023-064>068-092000-
...SOUTHWEST COLORADO...

CITY           SKY/WX    TMP DP  RH WIND       PRES   REMARKS
DURANGO        SUNNY     35  22  58 NE7       30.44F WCI  29
CORTEZ         SUNNY     40  28  62 SW12      30.44F
PAGOSA SPRINGS SUNNY     44  11  26 CALM      30.43F
TELLURIDE      SUNNY     42  10  26 SW5       30.50F
WOLF CREEK PAS SUNNY     34  -2  21 N17G35    30.56F WCI  23
$$

COZ009-010-012-014-032>034-037-058>063-092000-
...CENTRAL COLORADO...

CITY           SKY/WX    TMP DP  RH WIND       PRES   REMARKS
ASPEN          SUNNY     32  16  51 NW9       30.48F WCI  24
BUENA VISTA    SUNNY     47   8  20 NW14G24   30.38F
COPPER MTN     SUNNY     34   5  29 NW17G24   30.52F WCI  23
BERTHOUD PASS  FAIR      19  10  68 NW31G43   30.48F WCI   0
COTTONWOOD PAS SUNNY     46   0  14 E6        30.44S
GUNNISON       CLOUDY     5   1  85 CALM      30.59F
KREMMLING      CLOUDY   N/A N/A N/A CALM      30.57F
LEADVILLE      SUNNY     39   3  22 N23       30.45F
MONARCH PASS   SUNNY     28   7  40 W15G21    30.61F WCI  17
SALIDA         NOT AVBL
SUNLIGHT       SUNNY     32  18  55 NW5         N/A  WCI  27
WILKERSON PASS SUNNY     36   1  23 N7        30.48F
$$

COZ069>075-092000-
...SAN LUIS VALLEY/SANGRE DE CRISTO MOUNTAINS...

CITY           SKY/WX    TMP DP  RH WIND       PRES   REMARKS
ALAMOSA        SUNNY     40  18  41 S5        30.43F
LA VETA PASS   SUNNY     39  12  33 S5        30.45F
SAGUACHE       SUNNY     39  19  45 S8        30.44F
$$

COZ035-036-038>040-092000-
...NORTHERN COLORADO FRONT RANGE...

CITY           SKY/WX    TMP DP  RH WIND       PRES   REMARKS
DENVER INTL AP MOSUNNY   44  26  49 S12       30.30F
DMNS CITY PARK   N/A     55  14  19 S7        30.30F
AURORA         MOSUNNY   47  25  41 SE10      30.31F
FRONT RANGE AP MOSUNNY   41  28  60 MISG      30.32F
ERIE MUNI ARPT SUNNY     48  20  33 CALM      30.30F
BOULDER MUN AP SUNNY     52  21  30 E5        30.29F
CENTENNIAL     SUNNY     47  16  29 SE10      30.31F
BROOMFIELD     SUNNY     54  18  24 S8        30.31F
FORT COLLINS   SUNNY     46  27  46 CALM      30.31F
LONGMONT       SUNNY     48  22  34 CALM      30.31F
$$

COZ041-046-047-076>085-087-088-092000-
...PIKES PEAK/PALMER DIVIDE AND SOUTHERN FOOTHILLS...

CITY           SKY/WX    TMP DP  RH WIND       PRES   REMARKS
COLO. SPRINGS  MOSUNNY   45  16  31 SE6       30.34F
A. F. ACADEMY  SUNNY     45  17  33 S9        30.32F
SCHRIEVER AFB  NOT AVBL
ELLICOTT       NOT AVBL
FALCON         NOT AVBL
FORT CARSON    SUNNY     43  22  44 CALM      30.32F
LIMON          SUNNY     41  24  51 W8        30.32F
MONUMENT HILL  SUNNY     41  12  30 SE3       30.36F
TRINIDAD       SUNNY     58  11  15 NE8       30.32F
$$

COZ042>045-048>051-090-091-092000-
...NORTHEAST COLORADO...

CITY           SKY/WX    TMP DP  RH WIND       PRES   REMARKS
GREELEY ARPT   SUNNY     39  27  60 CALM      30.33S
AKRON          SUNNY     43  29  57 NW14      30.29S
BURLINGTON     SUNNY     42  28  57 NW13      30.29F
WRAY           CLOUDY    46  30  54 NW15G21   30.27F
STERLING       MOSUNNY   45  32  61 NW15      30.26F
HOLYOKE        CLOUDY    46  30  53 NW12G17   30.25F
FORT MORGAN    SUNNY     42  28  56 W10       30.31S
$$

COZ086-089-092>099-092000-
...SOUTHEAST COLORADO...

CITY           SKY/WX    TMP DP  RH WIND       PRES   REMARKS
PUEBLO         SUNNY     52  27  38 NE7       30.32F
LA JUNTA       SUNNY     53  29  39 W9        30.32F
LAMAR          SUNNY     56  28  34 W16       30.29F
SPRINGFIELD      N/A     58  21  24 NW18G26   30.30F
$$



USA.gov is the U.S. government's official web portal to all federal, state and local government web resources and services.